Content
SEND FEEDBACK

Daily
Averages
Monthly
Summary
United States of America

ST. LOUIS - SAINT LOUIS UNIVERSITY, MISSOURI


Home > North America > United States > Missouri
Elevation: 580 feet     Latitude: 38 38N     Longitude: 090 14W

WEATHER
 
SELECT A DAY
Number of Records: 189,040;   Date Range: 1/1/95 - 10/19/14
 
SHARE

PRINT THIS DATA

[ ← Previous Day ]
WEATHER ALMANAC - APRIL 3, 2013
[ Next Day → ]
[ °C ]   °F
Weather ElementAverageHighLow
Temperature42.5 °F53.1 °F (2:53 pm)30 °F (1:53 am)
Dewpoint23.1 °F26.1 °F (9:53 pm)19.9 °F (10:53 am)
Humidity48.9 %82 % (1:53 am)32 % (1:53 pm)
Barometer30.33 in30.41 in (8:53 am)30.26 in (11:53 pm)
Wind Speed6 mph15 mph (2:53 pm)
Wind Gust19.6 mph (1:53 pm)
Weather ElementAverage
Visibility10 mi
Wind DirectionENE (63.2 °)

Weather ElementTotal
Precipitation---
Heating Degree Days23.5 (Base 65)
Averaged from 22 records on April 3, 2013
WEATHER CONDITIONS BREAKOUT
WIND DIRECTION BREAKOUT
WEATHER BY HOUR - APRIL 3, 2013
[ °C ]   °F
Local TimeTemperatureDewpointHumidityBarometerVisibilityWind DirectionWind SpeedGust SpeedPrecipitationEventsConditions
1:53 AM30.0 °F25.0 °F82 %30.33 in10.0 miCalmClear
2:53 AM30.0 °F24.1 °F79 %30.32 in10.0 miCalmClear
3:53 AM32.0 °F21.9 °F66 %30.34 in10.0 miCalmClear
4:53 AM32.0 °F21.9 °F66 %30.33 in10.0 miCalmClear
5:53 AM30.9 °F21.9 °F69 %30.33 in10.0 miNorth (10°)4.6 mphClear
6:53 AM30.0 °F21.9 °F72 %30.38 in10.0 miNorth (360°)4.6 mphClear
8:53 AM37.9 °F21.9 °F53 %30.41 in10.0 miNE (40°)6.9 mphClear
9:53 AM43.0 °F21.9 °F43 %30.40 in10.0 miEast (80°)5.8 mphClear
10:53 AM46.0 °F19.9 °F35 %30.40 in10.0 miVariable6.9 mphClear
11:53 AM48.0 °F19.9 °F33 %30.39 in10.0 miEast (90°)8.1 mph18.4 mphClear
12:53 PM48.9 °F21.0 °F33 %30.35 in10.0 miNNE (30°)11.5 mphClear
1:53 PM51.1 °F21.9 °F32 %30.34 in10.0 miENE (70°)8.1 mph19.6 mphClear
2:53 PM53.1 °F25.0 °F34 %30.32 in10.0 miEast (100°)15.0 mph19.6 mphClear
3:53 PM51.1 °F21.9 °F32 %30.31 in10.0 miENE (70°)8.1 mph17.3 mphClear
4:53 PM51.1 °F23.0 °F33 %30.30 in10.0 miEast (90°)9.2 mphClear
5:53 PM50.0 °F24.1 °F36 %30.29 in10.0 miNE (50°)6.9 mphClear
6:53 PM48.9 °F24.1 °F38 %30.28 in10.0 miENE (70°)8.1 mphClear
7:53 PM46.9 °F24.1 °F41 %30.28 in10.0 miENE (70°)6.9 mphClear
8:53 PM45.0 °F25.0 °F46 %30.28 in10.0 miENE (70°)5.8 mphClear
9:53 PM44.1 °F26.1 °F49 %30.28 in10.0 miENE (70°)5.8 mphClear
10:53 PM43.0 °F26.1 °F51 %30.27 in10.0 miENE (60°)4.6 mphClear
11:53 PM42.1 °F26.1 °F53 %30.26 in10.0 miENE (60°)4.6 mphClear
Hourly data recorded from KCPS, located miles away from St. Louis - Saint Louis University, Missouri







STORIES FROM OUR PARTNERS